{"data":{"norad_id":67192,"intl_designator":"2025-304A","name":"STARLINK-36182","alt_names":[],"object_type":"PAYLOAD","status":"ACTIVE","operator":null,"country":"US","launch_date":"2025-12-17","launch_site_code":"AFWTR","launch_vehicle":null,"mission":null,"orbit_class":"UNKNOWN","rcs_meters":null,"size_class":null,"mass_kg":null,"dimensions":null,"purposes":["comms"],"wikipedia_slug":null,"has_3d_model":false,"image_url":null,"decayed_at":null,"tle_current":{"epoch":"2026-05-24T22:09:42.875424Z","epoch_age_seconds":84841,"freshness":"FRESH","line1":"1 67192U 25304A   26144.92341291  .00002090  00000+0  18291-3 0  9991","line2":"2 67192  70.0015 342.2561 0002352 264.1948  95.8942 14.98337008 25275","mean_motion":14.98337008,"eccentricity":0.0002352,"inclination_deg":70.0015,"raan_deg":342.2561,"arg_perigee_deg":264.1948,"mean_anomaly_deg":95.8942,"bstar":0.00018291,"rev_number":2527,"period_min":96.106549615439,"perigee_km":570.39953909618,"apogee_km":573.66889963777,"semimajor_km":6950.171219367,"source":"CELESTRAK","updated_at":"2026-05-25T13:38:21.486252Z"}}}